Regional Weather Roundup
Issued by NWS

Home | Current Version | Previous Version | Graphics & Text | Print | Product List | Glossary On
Versions: 1 2 3 4 5 6 7 8 9 10 11 12 13 14 15 16 17 18 19 20 21 22 23 24 25 26 27 28 29 30 31 32 33 34 35 36 37 38 39 40 41 42 43 44 45 46 47 48 49 50
000
ASUS43 KOAX 231010
RWRNE

WEATHER ROUNDUP FOR NEBRASKA
NATIONAL WEATHER SERVICE OMAHA NE
500 AM CDT SAT JUL 23 2016

NOTES: SATELLITE DATA IS BEING USED TO AUGMENT CLOUD COVER ABOVE
       12000 FEET.
       "FAIR" INDICATES FEW OR NO CLOUDS BELOW 12,000 FEET WITH NO
       SIGNIFICANT WEATHER AND/OR OBSTRUCTIONS TO VISIBILITY.

  * THESE STATIONS DO NOT REPORT WEATHER SUCH AS RAIN...SNOW OR FOG.

NEZ001>004-019>022-054>056-231100-
NEBRASKA PANHANDLE

CITY           SKY/WX    TMP DP  RH WIND       PRES   REMARKS
SCOTTSBLUFF    CLOUDY    64  60  87 CALM      29.95F
ALLIANCE       CLOUDY    62  60  93 SE6       29.95F
CHADRON        CLEAR     69  63  81 S6        29.89F
KIMBALL        PTCLDY    66  62  86 S6        30.04S
SIDNEY         PTCLDY    69  63  81 SW8       30.01S
$$

NEZ057>060-069>072-079>082-231100-
SOUTHWEST NEBRASKA

CITY           SKY/WX    TMP DP  RH WIND       PRES   REMARKS
NORTH PLATTE   CLOUDY    69  66  90 NE9       29.91F
IMPERIAL       CLOUDY    72  63  73 S9        29.92R
LEXINGTON      CLOUDY    70  67  92 SW6       29.88F
MCCOOK         CLOUDY    71  67  87 E8        29.93S
OGALLALA       PTCLDY    72  62  72 CALM      29.91F
$$

NEZ005>010-023>029-035>040-094-231100-
NORTH CENTRAL NEBRASKA

CITY           SKY/WX    TMP DP  RH WIND       PRES   REMARKS
VALENTINE      CLOUDY    73  61  65 W7        29.90S THUNDER
AINSWORTH      CLOUDY    68  66  92 E3        29.90S
BROKEN BOW     LGT RAIN  72  65  78 W15       29.89F
O`NEILL        CLOUDY    73  67  82 S7        29.86F
ORD            LGT RAIN  71  67  87 SE7       29.84F
THEDFORD       LGT RAIN  72  64  76 SE8       29.91R
$$

NEZ041-046>049-061>064-073>077-083>087-231100-
SOUTH CENTRAL NEBRASKA

CITY           SKY/WX    TMP DP  RH WIND       PRES   REMARKS
GRAND ISLAND   CLOUDY    72  69  90 CALM      29.90F
AURORA         LGT RAIN  74  70  89 NW3       29.92F
HASTINGS       CLOUDY    72  67  84 E3        29.93F
HEBRON         CLOUDY    78  69  74 SW6       29.91S
HOLDREGE       CLOUDY    71  67  88 SW6       29.93F
KEARNEY *      CLOUDY    72  66  83 S8        29.92F
YORK           CLOUDY    73  70  88 W7        29.91F
$$

NEZ011>018-030>034-042>045-231100-
NORTHEAST NEBRASKA

CITY           SKY/WX    TMP DP  RH WIND       PRES   REMARKS
NORFOLK        LGT RAIN  75  69  81 N3        29.89F
ALBION         LGT RAIN  73  68  86 NW8       29.83F
BLAIR          MOCLDY    82  72  71 S13       29.87F
FREMONT        MOCLDY    81  72  73 SW6       29.89R
TEKAMAH        LGT RAIN  79  75  87 SW5       29.86S
WAYNE          CLOUDY    79  74  86 W9        29.89F THUNDER
$$

NEZ050>053-065>068-078-088>093-231100-
SOUTHEAST NEBRASKA

CITY           SKY/WX    TMP DP  RH WIND       PRES   REMARKS
LINCOLN        CLOUDY    83  71  67 S10       29.89R
OMAHA EPPLEY   MOCLDY    83  73  72 SE13      29.86F
BEATRICE       RAIN      82  70  67 S7        29.90R
FALLS CITY     TSTM      78  72  81 VRB3      29.93R
NEBRASKA CITY  CLOUDY    80  67  64 S17G24    29.89F THUNDER
PLATTSMOUTH    MOCLDY    80  72  76 S13       29.88F
$$

NEZ044-045-051>053-067-231100-
OMAHA AREA

CITY           SKY/WX    TMP DP  RH WIND       PRES   REMARKS
OMAHA EPPLEY   MOCLDY    83  73  72 SE13      29.86F
BLAIR          MOCLDY    82  72  71 S13       29.87F
FREMONT        MOCLDY    81  72  73 SW6       29.89R
MILLARD        CLOUDY    83  73  69 S8        29.86S
OFFUTT AFB     MOCLDY    80  74  83 SE8       29.87S
PLATTSMOUTH    MOCLDY    80  72  76 S13       29.88F
WAHOO          PTSUNNY   78  73  84 SW5       29.88R
$$




USA.gov is the U.S. government's official web portal to all federal, state and local government web resources and services.